This demonstration page uses our WeatherBlox Daily Observations layout. Learn more.

Left ArrowRight Arrow

38.89511, -77.03637

Hourly Observations for July 25, 2015

Temp ( °F °C ) Dew Point ( °F °C ) Humidity (%) Winds ( mph kmh ) Pressure ( in mb ) Visibility ( mi km ) Precip ( " mm )
12:52 am 00:52 Mostly Cloudy 75 23.9 59 15 58 58 N N/A 29.98 1015 10 16 N/A
1:52 am 01:52 Mostly Cloudy 75 23.9 58 14.4 55 55 SW 5 7 29.98 1015 10 16 N/A
2:52 am 02:52 Mostly Cloudy 76 24.4 61 16.1 60 60 N N/A 29.97 1015 10 16 N/A
3:52 am 03:52 Mostly Cloudy 75 23.9 59 15 58 58 N N/A 29.97 1015 10 16 N/A
4:52 am 04:52 Mostly Cloudy 75 23.9 61 16.1 62 62 N N/A 29.97 1015 10 16 N/A
5:52 am 05:52 Mostly Cloudy 73 22.8 61 16.1 66 66 N N/A 29.99 1016 10 16 N/A
6:52 am 06:52 Mostly Cloudy 74 23.3 63 17.2 69 69 N N/A 30.00 1016 10 16 N/A
7:52 am 07:52 Mostly Cloudy 77 25 66 18.9 69 69 SSW 3 6 30.00 1016 10 16 N/A
8:52 am 08:52 Mostly Cloudy 78 25.6 68 20 71 71 S 5 7 30.01 1016 10 16 N/A
9:52 am 09:52 Mostly Cloudy 82 27.8 67 19.4 60 60 SSE 6 9 30.01 1016 10 16 N/A
10:52 am 10:52 Mostly Cloudy 84 28.9 62 16.7 48 48 SSE 8 13 30.01 1016 10 16 N/A
11:52 am 11:52 Mostly Cloudy 87 30.6 63 17.2 45 45 S 13 20 30.01 1016 10 16 N/A
12:52 pm 12:52 Mostly Cloudy 88 31.1 63 17.2 43 43 S 8 13 29.99 1016 10 16 N/A
1:52 pm 13:52 Mostly Cloudy 88 31.1 63 17.2 43 43 S 10 17 29.99 1016 10 16 N/A
2:52 pm 14:52 Partly Cloudy 88 31.1 65 18.3 46 46 S 13 20 29.97 1015 10 16 N/A
3:52 pm 15:52 Mostly Cloudy 90 32.2 67 19.4 47 47 S 10 17 29.97 1015 10 16 N/A
4:52 pm 16:52 Mostly Cloudy 87 30.6 66 18.9 50 50 S 13 20 29.96 1015 10 16 N/A
5:52 pm 17:52 Mostly Cloudy 87 30.6 66 18.9 50 50 S 14 22 29.95 1014 10 16 N/A
6:52 pm 18:52 Partly Cloudy 88 31.1 67 19.4 50 50 S 12 19 29.95 1014 10 16 N/A
7:52 pm 19:52 Partly Cloudy 85 29.4 66 18.9 53 53 S 10 17 29.96 1014 10 16 N/A
8:52 pm 20:52 Mostly Cloudy 83 28.3 66 18.9 57 57 S 8 13 29.96 1015 10 16 N/A
9:52 pm 21:52 Partly Cloudy 82 27.8 65 18.3 56 56 S 12 19 29.98 1015 10 16 N/A
10:52 pm 22:52 Mostly Clear 81 27.2 65 18.3 58 58 S 10 17 29.99 1016 10 16 N/A
11:52 pm 23:52 Mostly Clear 79 26.1 64 17.8 60 60 S 12 19 29.99 1016 10 16 N/A

Powered by AerisWeather